FENGYUN 1C DEB, 31365

Orbit data source: Space-Track

FENGYUN 1C DEB, 31365 is space debris in SSO originally from a launch on Mon, 10 May 1999 UTC launched from the Taiyaun Space Center, China (TSC). Fengyun 1C debris stems from the Chinese weather satellite Fengyun-1C, which was intentionally destroyed by a Chinese anti-satellite missile in 2007. This event dramatically increased the amount of space debris, with thousands of trackable fragments posing hazards to satellites and human spaceflight. The Fengyun 1C debris cloud has become a focal point in discussions about space sustainability and the need for international regulations to prevent the creation of new debris.

Loading next visibility...
Identifier
31365, 1999-025BRV
Orbit
SSO
Country
Flag of CNCN / PRC
Related business
Manufacturer
Unknown
Mission
Spacecraft
Bus & Motor
Unknown
Mass
Unknown
Launch date (UTC)
1999-05-10 (27 years ago)
Launch vehicle
Unknown
Launch site
Taiyaun Space Center, China (TSC)
Object type
Payload
Rocket body
Debris
Shape & HBR
Unknown shape, 0.1 m
Radar Cross Section
Small (<0.1 m²)

Expand to show TLE details & history
Last TLE update: 2 days ago

TLE from 2 days ago
0 FENGYUN 1C DEB
1 31365U 99025BRV 26235.20822001  .00004093  00000-0  11828-2 0  9994
2 31365  98.6687 329.7907 0041248 179.7649 180.3568 14.44620633  2751
Epoch: 2026-08-23T04:59Z
TLE epoch observation values (Epoch: 2026-08-23T04:59:50.208Z)
Latitude
-0.00001°
Longitude
-76.67607°
Altitude
775.602 km
Speed
7.451 km/s
True Right ascension
21h 59m 09s
True Declination
0° 00' 00"
Sunlit
Object was in full shadow at epoch
Visualization orbit readout
Latitude
Unknown
Longitude
Unknown
Altitude
Unknown
Speed
Unknown
Apparent Right ascension
Unknown
Apparent Declination
Unknown
Sunlit
N/A
Visualization observer readout
Local Sidereal Time
16:37:10
Azimuth
Unknown
Elevation
Unknown
Doppler factor
Unknown
Orbital elements
Apogee altitude
769.759 km
Perigee altitude
711.034 km
Semi-major axis
7,118.533 km
Eccentricity
0.00412
Inclination
98.6687°
RAAN
329.7907°
Arg. of periapsis
179.7649°
True anomaly
180.35387°
Mean anomaly
180.3568°
Eccentric anomaly
180.35533°
Mean motion
3.61374 °/min
Orbital period
99.62 mins
BSTAR
0.0011828
Loading maneuver chart data...
Computing Atmospheric mass density...
Loading historical data...
Loading historical data...
Loading historical data...
Loading historical data...
Loading historical data...
Loading historical data...
Loading historical data...

Documentation

Showing up to 5 results
|